This is the latest recevied weather packets stored in our database for station/object KC1OEK-13. If no packets are shown the sender has not sent any weather packets the latest 10 day(s).
| Time | Temp. | Humidity | Pressure | Rain* | Wind** | Luminosity | Snow |
|---|---|---|---|---|---|---|---|
| 1787832689 | 18.89° C | 96% | 1020 hPa | 0 mm | - | 128 W/m² | - |
| 1787832388 | 18.89° C | 97% | 1020.1 hPa | 0 mm | - | 100 W/m² | - |
| 1787832082 | 18.33° C | 98% | 1020 hPa | 0 mm | - | 131 W/m² | - |
| 1787831781 | 17.78° C | 99% | 1020.1 hPa | 0 mm | - | 162 W/m² | - |
| 1787831481 | 17.78° C | 99% | 1020.3 hPa | 0 mm | - | 142 W/m² | - |
| 1787831179 | 17.78° C | 99% | 1020.3 hPa | 0 mm | - | 107 W/m² | - |
| 1787830876 | 17.22° C | 99% | 1020.5 hPa | 0 mm | - | 89 W/m² | - |
| 1787830575 | 17.22° C | 99% | 1020.3 hPa | 0 mm | - | 80 W/m² | - |
| 1787830274 | 17.22° C | 99% | 1020.4 hPa | 0 mm | - | 62 W/m² | - |
| 1787829969 | 16.67° C | 99% | 1020.4 hPa | 0 mm | - | 63 W/m² | - |
| 1787829669 | 16.67° C | 99% | 1020.4 hPa | 0 mm | - | 53 W/m² | - |
| 1787829364 | 16.67° C | 99% | 1020.5 hPa | 0 mm | - | 35 W/m² | - |
| 1787829060 | 16.67° C | 99% | 1020.5 hPa | 0 mm | - | 34 W/m² | - |
| 1787828755 | 16.67° C | 99% | 1020.4 hPa | 0 mm | - | 39 W/m² | - |
| 1787828451 | 16.67° C | 99% | 1020.3 hPa | 0 mm | - | 38 W/m² | - |
| 1787828150 | 16.11° C | 99% | 1020.4 hPa | 0 mm | - | 23 W/m² | - |
| 1787827849 | 16.11° C | 99% | 1020.5 hPa | 0 mm | - | 20 W/m² | - |
| 1787827545 | 16.11° C | 99% | 1020.4 hPa | 0 mm | - | 15 W/m² | - |
| 1787827244 | 16.11° C | 99% | 1020.2 hPa | 0 mm | - | 15 W/m² | - |
| 1787826943 | 16.11° C | 99% | 1020.1 hPa | 0 mm | - | 10 W/m² | - |
| 1787826638 | 16.11° C | 99% | 1020.1 hPa | 0 mm | - | 8 W/m² | - |
| 1787826334 | 16.11° C | 99% | 1020.2 hPa | 0 mm | - | 6 W/m² | - |
| 1787826031 | 16.11° C | 99% | 1020 hPa | 0 mm | - | 4 W/m² | - |
| 1787825729 | 16.11° C | 99% | 1020 hPa | 0 mm | - | 2 W/m² | - |
| 1787825428 | 16.11° C | 99% | 1020.1 hPa | 0 mm | - | 1 W/m² | - |
* Rain latest hour (hover to see other rain measurements)
** Current wind speed in m/s (hover to see current wind gust speed)